Regional Weather Roundup
Issued by NWS State College, PA

Home | Current Version | Previous Version | Text Only | Print | Product List | Glossary Off
Versions: 1 2 3 4 5 6 7 8 9 10 11 12 13 14 15 16 17 18 19 20 21 22 23 24 25 26 27 28 29 30 31 32 33 34 35 36 37 38 39 40 41 42 43 44 45 46 47 48 49 50

000
ASUS41 KCTP 180803
RWRCTP

REGIONAL WEATHER ROUNDUP
NATIONAL WEATHER SERVICE STATE COLLEGE PA
400 AM EDT THU SEP 18 2014

Note: "fair" indicates few or no clouds below 12,000 feet with no
significant weather and/or obstructions to visibility.

* = STATION THAT DOES NOT REPORT PRECIPITATION /E.G. RAIN...SNOW...ETC/
    THUNDER OR FOG.

PAZ002>004-007>009-013>016-020>023-029>032-180900-
WESTERN PENNSYLVANIA

CITY           SKY/WX    TMP DP  RH WIND       PRES   REMARKS
ERIE           CLEAR     50  45  83 S7        30.00S
MEADVILLE      CLEAR     47  45  93 CALM      30.01S
FRANKLIN*      CLOUDY    45  39  81 CALM      30.03R VSB 1/2
NEW CASTLE     FAIR      46  46 100 CALM      30.03S FOG
BEAVER COUNTY  NOT AVBL
BUTLER*        MOCLDY    48  46  93 CALM      30.03R
PITTSBURGH INT PTCLDY    54  49  83 N5        30.00
PITTSBURGH     CLOUDY    53  48  83 N3        29.99S
INDIANA*       CLOUDY    48  46  93 CALM      30.04R
LATROBE        PTCLDY    46  46 100 CALM      30.01S
WASHINGTON CO* CLOUDY    46  45  93 CALM      30.01R VSB 1/2
$$

PAZ004>006-010>012-017>019-024>028-033>037-041-042-045-046-049>053-180900-
CENTRAL PENNSYLVANIA

CITY           SKY/WX    TMP DP  RH WIND       PRES   REMARKS
BRADFORD       MOCLDY    41  39  93 CALM      30.01S
DUBOIS         PTCLDY    44  43  96 CALM      30.00R
CLEARFIELD     PTCLDY    44  43  96 CALM      30.00S
JOHNSTOWN      MOCLDY    52  45  77 CALM      30.00S
ALTOONA        MOCLDY    51  49  92 CALM      29.99S
STATE COLLEGE  MOCLDY    50  49  97 CALM      29.99S
WILLIAMSPORT   MOCLDY    49  46  90 CALM      29.98S
SELINSGROVE    MOCLDY    46  44  93 CALM      29.99S FOG
FT INDIANTOWN  CLEAR     47  47 100 CALM      29.97F
CAPITAL CITY   CLOUDY    52  49  89 W5        29.98S
HARRISBURG     MOCLDY    53  49  86 CALM      29.97S
YORK           CLOUDY    50  48  93 CALM      29.98R
$$

PAZ038>040-043-044-047-048-054-055-060>062-067>071-180900-
EASTERN PENNSYLVANIA

CITY           SKY/WX    TMP DP  RH WIND       PRES   REMARKS
SCRANTON       CLEAR     45  42  89 E6        29.98S
MOUNT POCONO   CLEAR     40  32  73 CALM      29.98S
ALLENTOWN      CLEAR     47  44  90 CALM      29.98R
QUAKERTOWN*    SUNNY     45  43  93 CALM      29.98S
READING        PTCLDY    50  46  86 CALM      29.97R
LANCASTER      MOCLDY    51  47  86 CALM      29.97S
COATESVILLE    SUNNY     50  48  93 W3        29.98S
POTTSTOWN      CLEAR     48  47  96 CALM      29.99S
BLUE BELL        N/A     46  45  93 CALM      29.96S
DOYLESTOWN     CLEAR     48  47  96 CALM      29.97R
WILLOW GROVE   NOT AVBL
NORTH PHILA    CLEAR     54  49  83 CALM      29.98S
PHILADELPHIA   CLEAR     58  52  80 N3        29.97S
$$


USA.gov is the U.S. government's official web portal to all federal, state and local government web resources and services.